User: anonymous
Location: Belfast
(54.5830°N, 5.9330°W)
Time: 04:12:55
(UTC+01:00)
Language:

Coronas F rocket - Orbit

View from above orbital plane
View from above orbital plane
View from above satellite
View from above satellite

Ground track
Ground track

The orbit data is extracted from the following two-line orbital elements,

1 26874U 01032B   14294.83451600  .00026131  00000-0  38338-3 0  8293
2 26874 082.4747 210.3670 0012005 317.3262 042.7058 15.55289267740964
Epoch (UTC): 21 October 2014 20:01:42
Eccentricity: 0.0012005
inclination: 82.4747°
perigee height: 393 km
apogee height: 409 km
right ascension of ascending node: 210.3670°
argument of perigee: 317.3262°
revolutions per day: 15.55289267
mean anomaly at epoch: 42.7058°
orbit number at epoch: 74096

The dashed part of the orbit path shows where the satellite is in the earth's shadow,  

DLR